This is the latest recevied weather packets stored in our database for station/object WA1OUI. If no packets are shown the sender has not sent any weather packets the latest 10 day(s).
| Time | Temp. | Humidity | Pressure | Rain* | Wind** | Luminosity | Snow |
|---|---|---|---|---|---|---|---|
| 1776972712 | 21.67° C | 25% | 1007.8 hPa | 0 mm | - | 412 W/m² | - |
| 1776972411 | 21.67° C | 23% | 1007.6 hPa | 0 mm | - | 449 W/m² | - |
| 1776972111 | 21.67° C | 27% | 1008.1 hPa | 0 mm | - | 470 W/m² | - |
| 1776971807 | 21.67° C | 26% | 1008.1 hPa | 0 mm | - | 468 W/m² | - |
| 1776971504 | 21.67° C | 26% | 1008.2 hPa | 0 mm | - | 357 W/m² | - |
| 1776971202 | 21.67° C | 25% | 1008.4 hPa | 0 mm | - | 418 W/m² | - |
| 1776970898 | 21.11° C | 25% | 1008.4 hPa | 0 mm | - | 405 W/m² | - |
| 1776970596 | 21.11° C | 27% | 1008.4 hPa | 0 mm | - | 395 W/m² | - |
| 1776970292 | 21.11° C | 25% | 1008.6 hPa | 0 mm | - | 552 W/m² | - |
| 1776969988 | 20.56° C | 26% | 1008.5 hPa | 0 mm | - | 572 W/m² | - |
| 1776969686 | 21.11° C | 24% | 1008.6 hPa | 0 mm | - | 625 W/m² | - |
| 1776969382 | 21.11° C | 27% | 1008.7 hPa | 0 mm | - | 608 W/m² | - |
| 1776969080 | 20.56° C | 29% | 1008.7 hPa | 0 mm | - | 636 W/m² | - |
| 1776968780 | 21.11° C | 25% | 1008.9 hPa | 0 mm | - | 656 W/m² | - |
| 1776968476 | 21.11° C | 26% | 1008.9 hPa | 0 mm | - | 651 W/m² | - |
| 1776968171 | 21.11° C | 26% | 1009.1 hPa | 0 mm | - | 660 W/m² | - |
| 1776967868 | 20.56° C | 32% | 1009.1 hPa | 0 mm | - | 670 W/m² | - |
| 1776967565 | 20° C | 27% | 1009.2 hPa | 0 mm | - | 672 W/m² | - |
| 1776967264 | 20.56° C | 28% | 1009.3 hPa | 0 mm | - | 659 W/m² | - |
| 1776966958 | 20.56° C | 27% | 1009.2 hPa | 0 mm | - | 522 W/m² | - |
* Rain latest hour (hover to see other rain measurements)
** Current wind speed in m/s (hover to see current wind gust speed)